Location: Fort Wayne
(41.1310°N, 85.1290°W)
Time: 05:11:04
(UTC-05:00)

Courier 1B Rocket - All Passes

Search period start: 08 February 2016 00:00
Search period end: 18 February 2016 00:00
Orbit: 921 x 1202 km, 28.2° (Epoch: 06 February)

Date Brightness Start Highest point End Pass type
(mag) Time Alt. Az. Time Alt. Az. Time Alt. Az.
08 Feb - 02:20:15 10° SSW 02:25:46 21° SSE 02:31:20 10° ESE visible
08 Feb - 04:11:59 10° SW 04:18:36 31° S 04:25:09 10° ESE visible
08 Feb - 06:05:11 10° WSW 06:11:31 27° S 06:17:39 10° SE visible
08 Feb - 08:00:10 10° WSW 08:04:07 15° SSW 08:07:58 10° S daylight
09 Feb - 01:20:22 10° SSW 01:24:54 17° SSE 01:29:31 10° ESE night (unlit)
09 Feb - 03:11:12 10° SW 03:17:37 29° S 03:24:04 10° ESE visible
09 Feb - 05:03:58 10° WSW 05:10:33 30° S 05:17:02 10° SE visible
09 Feb - 06:58:05 10° WSW 07:03:19 20° SSW 07:08:25 10° SSE visible
10 Feb - 00:21:26 10° S 00:24:07 12° SSE 00:26:50 10° SE night (unlit)
10 Feb - 02:10:39 10° SW 02:16:40 25° SSE 02:22:48 10° ESE night (unlit)
10 Feb - 04:02:55 10° WSW 04:09:34 31° S 04:16:12 10° ESE visible
10 Feb - 05:56:29 10° WSW 06:02:27 24° SSW 06:08:18 10° SE visible
10 Feb - 07:53:28 10° SW 07:54:57 11° SSW 07:56:26 10° SSW daylight
11 Feb - 01:10:25 10° SSW 01:15:47 21° SSE 01:21:17 10° ESE night (unlit)
11 Feb - 03:02:02 10° SW 03:08:35 31° S 03:15:13 10° ESE visible
11 Feb - 04:55:08 10° WSW 05:01:31 28° S 05:07:50 10° SE visible
11 Feb - 06:50:01 10° WSW 06:54:11 15° SSW 06:58:17 10° S visible
12 Feb - 00:10:39 10° SSW 00:14:58 16° SSE 00:19:23 10° ESE night (unlit)
12 Feb - 02:01:21 10° SW 02:07:37 28° S 02:14:03 10° ESE night (unlit)
12 Feb - 03:54:00 10° WSW 04:00:32 30° S 04:07:07 10° SE visible
12 Feb - 05:48:01 10° WSW 05:53:20 20° SSW 05:58:36 10° SSE visible
12 Feb - 23:11:55 10° S 23:14:13 12° SSE 23:16:32 10° SE night (unlit)
13 Feb - 01:00:54 10° SW 01:06:42 25° SSE 01:12:42 10° ESE night (unlit)
13 Feb - 02:53:02 10° WSW 02:59:33 31° S 03:06:12 10° ESE visible
13 Feb - 04:46:29 10° WSW 04:52:26 24° SSW 04:58:23 10° SE visible
13 Feb - 06:43:14 10° SW 06:45:01 11° SSW 06:46:47 10° SSW visible
14 Feb - 00:00:46 10° SSW 00:05:51 21° SSE 00:11:08 10° ESE night (unlit)
14 Feb - 01:52:15 10° SW 01:58:35 30° S 02:05:08 10° ESE night (unlit)
14 Feb - 03:45:14 10° WSW 03:51:29 27° S 03:57:51 10° SE visible
14 Feb - 05:40:01 10° WSW 05:44:12 15° SSW 05:48:23 10° S visible
14 Feb - 23:01:06 10° S 23:05:05 16° SSE 23:09:11 10° ESE night (unlit)
15 Feb - 00:51:40 10° SW 00:57:39 28° S 01:03:55 10° ESE night (unlit)
15 Feb - 02:44:11 10° WSW 02:50:32 30° S 02:57:03 10° SE visible
15 Feb - 04:38:06 10° WSW 04:43:20 20° SSW 04:48:37 10° SSE visible
15 Feb - 22:02:44 10° SSE 22:04:23 11° SSE 22:06:04 10° SE night (unlit)
15 Feb - 23:51:18 10° SW 23:56:48 24° SSE 00:02:33 10° ESE night (unlit)
16 Feb - 01:43:19 10° WSW 01:49:34 30° S 01:56:05 10° ESE night (unlit)
16 Feb - 03:36:40 10° WSW 03:42:26 24° SSW 03:48:20 10° SE visible
16 Feb - 05:33:25 10° SW 05:35:02 11° SSW 05:36:40 10° SSW visible
16 Feb - 22:51:15 10° SSW 22:56:00 20° SSE 23:00:58 10° ESE night (unlit)
17 Feb - 00:42:38 10° SW 00:48:39 29° S 00:54:59 10° ESE night (unlit)
17 Feb - 02:35:30 10° WSW 02:41:31 27° S 02:47:44 10° SE night (unlit)
17 Feb - 04:30:12 10° SW 04:34:13 15° SSW 04:38:16 10° S visible
17 Feb - 21:51:42 10° S 21:55:17 15° SSE 21:59:00 10° SE visible
17 Feb - 23:42:07 10° SW 23:47:47 27° S 23:53:46 10° ESE night (unlit)
